Watsonville, CA

2:10 AM PDT on August 18, 2017 (GMT -0700)
Watsonville Municipal

Weather History for KWVI - January, 2013

Change the Weather History Date:

Monday, January 21, 2013

  Actual Average Record
Temperature  
Mean Temperature 55 °F 51 °F  
Max Temperature 72 °F 62 °F 76 °F (2014)
Min Temperature 37 °F 40 °F 34 °F (2007)
Degree Days  
Heating Degree Days 10    
Month to date heating degree days 370  
Since 1 July heating degree days 1598  
Cooling Degree Days 0    
Month to date cooling degree days 0  
Year to date cooling degree days 0  
Growing Degree Days 6 (Base 50)    
Moisture  
Dew Point 32 °F    
Average Humidity 43    
Maximum Humidity 67    
Minimum Humidity 19    
Precipitation  
Precipitation 0.00 in - 1.39 in (1970)
Month to date precipitation 0.59  
Year to date precipitation 0.59  
Since 1 July precipitation 11.53  
Sea Level Pressure  
Sea Level Pressure 30.11 in    
Wind  
Wind Speed 4 mph (NNE)    
Max Wind Speed 8 mph    
Max Gust Speed 10 mph    
Visibility 10 miles    
Events      
T = Trace of Precipitation, MM = Missing Value Source: NWS Daily Summary

Daily Weather History Graph

Daily Weather History Graph

Search for Another Location

Airport or City:

Trip Planner

Search our weather history database for the weather conditions in past years. The results will help you decide how hot, cold, wet, or windy it might be!

Date:

Astronomy

Jan. 21, 2013 Rise Set
Actual Time 7:16 AM PST 5:20 PM PST
Civil Twilight 6:48 AM PST 5:48 PM PST
Nautical Twilight 6:17 AM PST 6:20 PM PST
Astronomical Twilight 5:46 AM PST 6:51 PM PST
Moon 1:05 PM PST (1/21) 2:49 AM PST (1/21)
Length of Visible Light 11h 00m
Length of Day
10h 04m
Waxing Gibbous, 76% of the Moon is Illuminated
Jan 21
Waxing Gibbous
Jan 26
Full
Feb 3
Last Quarter
Feb 9
New
Feb 17
First Quarter

Hourly Weather History & Observations

Time (PST) Temp. Windchill Dew Point Humidity Pressure Visibility Wind Dir Wind Speed Gust Speed Precip Events Conditions
12:53 AM 42.1 °F 40.2 °F 30.9 °F 65% 30.13 in 10.0 mi West 3.5 mph - N/A   Clear
1:53 AM 42.1 °F 39.2 °F 32.0 °F 67% 30.13 in 10.0 mi NNE 4.6 mph - N/A   Clear
2:53 AM 42.1 °F 38.4 °F 30.9 °F 65% 30.12 in 10.0 mi NNE 5.8 mph - N/A   Clear
3:53 AM 44.1 °F 40.8 °F 30.0 °F 58% 30.10 in 10.0 mi North 5.8 mph - N/A   Clear
4:53 AM 41.0 °F 38.0 °F 28.9 °F 62% 30.09 in 10.0 mi NNE 4.6 mph - N/A   Clear
5:53 AM 39.0 °F 36.8 °F 28.0 °F 65% 30.09 in 10.0 mi NNW 3.5 mph - N/A   Clear
6:53 AM 39.0 °F 36.8 °F 28.0 °F 65% 30.10 in 10.0 mi North 3.5 mph - N/A   Clear
7:53 AM 44.1 °F 42.5 °F 28.9 °F 55% 30.12 in 10.0 mi NNE 3.5 mph - N/A   Clear
8:53 AM 48.0 °F - 30.9 °F 52% 30.13 in 10.0 mi Calm Calm - N/A   Clear
9:53 AM 57.0 °F - 32.0 °F 39% 30.15 in 10.0 mi East 5.8 mph - N/A   Clear
10:53 AM 61.0 °F - 30.0 °F 31% 30.17 in 10.0 mi South 3.5 mph - N/A   Clear
11:53 AM 66.0 °F - 32.0 °F 28% 30.14 in 10.0 mi East 5.8 mph - N/A   Clear
12:53 PM 69.1 °F - 30.0 °F 23% 30.12 in 10.0 mi ENE 4.6 mph - N/A   Clear
1:53 PM 71.1 °F - 27.0 °F 19% 30.10 in 10.0 mi Variable 3.5 mph - N/A   Clear
2:53 PM 72.0 °F - 28.0 °F 20% 30.09 in 10.0 mi East 4.6 mph - N/A   Clear
3:53 PM 70.0 °F - 34.0 °F 27% 30.07 in 10.0 mi East 6.9 mph - N/A   Clear
4:53 PM 66.0 °F - 37.0 °F 34% 30.06 in 10.0 mi ENE 4.6 mph - N/A   Clear
5:53 PM 60.1 °F - 37.0 °F 42% 30.06 in 10.0 mi NNE 3.5 mph - N/A   Clear
6:53 PM 55.0 °F - 37.0 °F 51% 30.08 in 10.0 mi NNW 3.5 mph - N/A   Clear
7:53 PM 51.1 °F - 35.1 °F 54% 30.10 in 10.0 mi NW 4.6 mph - N/A   Clear
8:53 PM 48.9 °F - 34.0 °F 56% 30.11 in 10.0 mi NW 3.5 mph - N/A   Clear
9:53 PM 48.0 °F - 32.0 °F 54% 30.12 in 10.0 mi North 3.5 mph - N/A   Clear
10:53 PM 46.0 °F - 33.1 °F 61% 30.12 in 10.0 mi Calm Calm - N/A   Clear
11:53 PM 46.9 °F - 35.1 °F 63% 30.11 in 10.0 mi Calm Calm - N/A   Clear